When you browse on this site, cookies collect data to enhance your experience and personalize the content and advertising you see.
Visit our Privacy Policy to learn more. By continuing to use the site, you agree to this use of cookies and data.
  • în România
  • Lista ţărilor
  • Pe 7 zile
  • Temperatura apei
  • Meteo pe hartă
  • Widget-uri
  • user-avatar
    Intrare

    Meteo pe oră la Murcia

    Astăzi, 12 Noiembrie, Marţi

    Timp Temperatura Precipitaţii Vânt Presiune Umiditate
    00:00 +11°C° 0 mm 8 m/s 756 mmHg 55%
    01:00 +10°C° 0 mm 8 m/s 756 mmHg 54%
    02:00 +10°C° 0 mm 8 m/s 756 mmHg 53%
    03:00 +10°C° 0 mm 8 m/s 755 mmHg 52%
    04:00 +9°C° 0 mm 8 m/s 755 mmHg 52%
    05:00 +9°C° 0 mm 8 m/s 755 mmHg 51%
    06:00 +9°C° 0 mm 8 m/s 756 mmHg 51%
    07:00 +10°C° 0 mm 8 m/s 756 mmHg 48%
    08:00 +11°C° 0 mm 8 m/s 756 mmHg 45%
    09:00 +12°C° 0 mm 8 m/s 756 mmHg 42%
    10:00 +15°C° 0 mm 8 m/s 756 mmHg 39%
    11:00 +16°C° 0 mm 8 m/s 756 mmHg 36%
    12:00 +17°C° 0 mm 8 m/s 756 mmHg 33%
    13:00 +17°C° 0 mm 8 m/s 755 mmHg 32%
    14:00 +18°C° 0 mm 8 m/s 754 mmHg 31%
    15:00 +18°C° 0 mm 8 m/s 754 mmHg 29%
    16:00 +17°C° 0 mm 7 m/s 754 mmHg 33%
    17:00 +16°C° 0 mm 6 m/s 755 mmHg 36%
    18:00 +14°C° 0 mm 5 m/s 755 mmHg 39%
    19:00 +14°C° 0 mm 5 m/s 755 mmHg 42%
    20:00 +13°C° 0 mm 4 m/s 755 mmHg 46%
    21:00 +12°C° 0 mm 3 m/s 755 mmHg 49%
    22:00 +12°C° 0 mm 3 m/s 755 mmHg 52%
    23:00 +13°C° 0 mm 2 m/s 755 mmHg 54%

    Mâine, 13 Noiembrie, Miercuri

    Timp Temperatura Precipitaţii Vânt Presiune Umiditate
    00:00 +12°C° 0 mm 2 m/s 754 mmHg 57%
    01:00 +13°C° 0 mm 2 m/s 754 mmHg 55%
    02:00 +13°C° 0 mm 2 m/s 753 mmHg 53%
    03:00 +13°C° 0 mm 2 m/s 753 mmHg 51%
    04:00 +13°C° 0 mm 2 m/s 752 mmHg 52%
    05:00 +11°C° 0 mm 3 m/s 752 mmHg 54%
    06:00 +11°C° 0 mm 3 m/s 752 mmHg 55%
    07:00 +13°C° 0 mm 4 m/s 752 mmHg 53%
    08:00 +15°C° 0 mm 5 m/s 752 mmHg 52%
    09:00 +17°C° 0 mm 7 m/s 752 mmHg 50%
    10:00 +18°C° 0 mm 8 m/s 752 mmHg 48%
    11:00 +21°C° 0 mm 10 m/s 752 mmHg 45%
    12:00 +22°C° 0 mm 12 m/s 752 mmHg 42%
    13:00 +22°C° 0 mm 11 m/s 752 mmHg 42%
    14:00 +22°C° 0 mm 10 m/s 752 mmHg 42%
    15:00 +22°C° 0 mm 9 m/s 752 mmHg 42%
    16:00 +21°C° 0 mm 8 m/s 753 mmHg 46%
    17:00 +18°C° 0 mm 7 m/s 753 mmHg 51%
    18:00 +17°C° 0 mm 5 m/s 754 mmHg 55%
    19:00 +17°C° 0 mm 5 m/s 754 mmHg 56%
    20:00 +17°C° 0 mm 4 m/s 754 mmHg 57%
    21:00 +17°C° 0 mm 3 m/s 754 mmHg 59%
    22:00 +16°C° 0 mm 2 m/s 754 mmHg 61%
    23:00 +16°C° 0 mm 2 m/s 754 mmHg 63%

    Poimâine, 14 Noiembrie, Joi

    Timp Temperatura Precipitaţii Vânt Presiune Umiditate
    00:00 +15°C° 0 mm 2 m/s 753 mmHg 66%
    01:00 +15°C° 0 mm 2 m/s 753 mmHg 67%
    02:00 +14°C° 0 mm 2 m/s 752 mmHg 68%
    03:00 +13°C° 0 mm 3 m/s 751 mmHg 69%
    04:00 +13°C° 0 mm 3 m/s 751 mmHg 71%
    05:00 +12°C° 0 mm 3 m/s 750 mmHg 73%
    06:00 +12°C° 0 mm 3 m/s 750 mmHg 75%
    07:00 +13°C° 0 mm 4 m/s 750 mmHg 67%
    08:00 +15°C° 0 mm 4 m/s 750 mmHg 60%
    09:00 +16°C° 0 mm 5 m/s 750 mmHg 52%
    10:00 +17°C° 0 mm 7 m/s 749 mmHg 48%
    11:00 +17°C° 0 mm 8 m/s 749 mmHg 45%
    12:00 +17°C° 0 mm 10 m/s 749 mmHg 41%
    13:00 +16°C° 0 mm 10 m/s 749 mmHg 44%
    14:00 +14°C° 0 mm 10 m/s 749 mmHg 47%
    15:00 +13°C° 0 mm 10 m/s 748 mmHg 50%
    16:00 +12°C° 0 mm 9 m/s 749 mmHg 48%
    17:00 +12°C° 0 mm 8 m/s 749 mmHg 47%
    18:00 +11°C° 0 mm 6 m/s 749 mmHg 45%
    19:00 +11°C° 0 mm 7 m/s 749 mmHg 47%
    20:00 +10°C° 0 mm 7 m/s 750 mmHg 49%
    21:00 +10°C° 0 mm 8 m/s 750 mmHg 51%
    22:00 +9°C° 0 mm 7 m/s 750 mmHg 51%
    23:00 +9°C° 0 mm 6 m/s 750 mmHg 51%

    15 Noiembrie, Vineri

    Timp Temperatura Precipitaţii Vânt Presiune Umiditate
    00:00 +8°C° 0 mm 4 m/s 750 mmHg 51%
    01:00 +8°C° 0 mm 4 m/s 750 mmHg 52%
    02:00 +7°C° 0 mm 4 m/s 750 mmHg 53%
    03:00 +7°C° 0 mm 4 m/s 750 mmHg 54%
    04:00 +8°C° 0 mm 3 m/s 750 mmHg 55%
    05:00 +8°C° 0 mm 3 m/s 750 mmHg 57%
    06:00 +8°C° 0 mm 2 m/s 750 mmHg 58%
    07:00 +9°C° 0 mm 3 m/s 750 mmHg 55%
    08:00 +10°C° 0 mm 4 m/s 750 mmHg 52%
    09:00 +11°C° 0 mm 4 m/s 750 mmHg 48%
    10:00 +12°C° 0 mm 5 m/s 750 mmHg 44%
    11:00 +12°C° 0 mm 5 m/s 750 mmHg 39%
    12:00 +13°C° 0 mm 6 m/s 750 mmHg 35%
    13:00 +13°C° 0 mm 6 m/s 749 mmHg 34%
    14:00 +13°C° 0 mm 6 m/s 749 mmHg 33%
    15:00 +14°C° 0 mm 6 m/s 749 mmHg 33%
    16:00 +11°C° 0 mm 6 m/s 749 mmHg 37%
    17:00 +10°C° 0 mm 5 m/s 750 mmHg 41%
    18:00 +10°C° 0 mm 4 m/s 750 mmHg 46%
    19:00 +8°C° 0 mm 4 m/s 750 mmHg 48%
    20:00 +9°C° 0 mm 3 m/s 751 mmHg 51%
    21:00 +8°C° 0 mm 3 m/s 751 mmHg 53%
    22:00 +8°C° 0 mm 3 m/s 751 mmHg 53%
    23:00 +8°C° 0 mm 3 m/s 751 mmHg 54%

    16 Noiembrie, Sâmbătă

    Timp Temperatura Precipitaţii Vânt Presiune Umiditate
    00:00 +7°C° 0 mm 3 m/s 751 mmHg 54%
    01:00 +7°C° 0 mm 3 m/s 751 mmHg 55%
    02:00 +7°C° 0 mm 3 m/s 752 mmHg 56%
    03:00 +7°C° 0 mm 3 m/s 752 mmHg 57%
    04:00 +5°C° 0 mm 3 m/s 752 mmHg 56%
    05:00 +5°C° 0 mm 3 m/s 752 mmHg 56%
    06:00 +5°C° 0 mm 3 m/s 753 mmHg 56%
    07:00 +7°C° 0 mm 4 m/s 753 mmHg 52%
    08:00 +8°C° 0 mm 6 m/s 754 mmHg 48%
    09:00 +9°C° 0 mm 7 m/s 754 mmHg 44%
    10:00 +11°C° 0 mm 7 m/s 754 mmHg 40%
    11:00 +12°C° 0 mm 7 m/s 755 mmHg 37%
    12:00 +13°C° 0 mm 8 m/s 755 mmHg 34%
    13:00 +14°C° 0 mm 7 m/s 754 mmHg 33%
    14:00 +15°C° 0 mm 7 m/s 754 mmHg 33%
    15:00 +15°C° 0 mm 6 m/s 754 mmHg 32%
    16:00 +13°C° 0 mm 6 m/s 755 mmHg 36%
    17:00 +12°C° 0 mm 5 m/s 755 mmHg 40%
    18:00 +11°C° 0 mm 4 m/s 756 mmHg 43%
    19:00 +10°C° 0 mm 4 m/s 756 mmHg 44%
    20:00 +10°C° 0 mm 4 m/s 756 mmHg 45%
    21:00 +9°C° 0 mm 3 m/s 756 mmHg 46%
    22:00 +9°C° 0 mm 3 m/s 756 mmHg 47%
    23:00 +9°C° 0 mm 3 m/s 757 mmHg 49%

    17 Noiembrie, Duminică

    Timp Temperatura Precipitaţii Vânt Presiune Umiditate
    00:00 +8°C° 0 mm 3 m/s 757 mmHg 51%
    01:00 +8°C° 0 mm 3 m/s 756 mmHg 52%
    02:00 +8°C° 0 mm 3 m/s 756 mmHg 53%
    03:00 +7°C° 0 mm 3 m/s 756 mmHg 54%
    04:00 +7°C° 0 mm 3 m/s 756 mmHg 55%
    05:00 +7°C° 0 mm 2 m/s 756 mmHg 56%
    06:00 +6°C° 0 mm 2 m/s 756 mmHg 57%
    07:00 +8°C° 0 mm 2 m/s 756 mmHg 51%
    08:00 +10°C° 0 mm 2 m/s 756 mmHg 46%
    09:00 +12°C° 0 mm 2 m/s 756 mmHg 41%
    10:00 +14°C° 0 mm 2 m/s 756 mmHg 38%
    11:00 +14°C° 0 mm 3 m/s 756 mmHg 35%
    12:00 +17°C° 0 mm 3 m/s 755 mmHg 32%
    13:00 +17°C° 0 mm 3 m/s 755 mmHg 33%
    14:00 +18°C° 0 mm 3 m/s 754 mmHg 34%
    15:00 +18°C° 0 mm 3 m/s 754 mmHg 35%
    16:00 +17°C° 0 mm 3 m/s 754 mmHg 41%
    17:00 +14°C° 0 mm 3 m/s 754 mmHg 47%
    18:00 +14°C° 0 mm 2 m/s 754 mmHg 53%
    19:00 +14°C° 0 mm 2 m/s 754 mmHg 55%
    20:00 +14°C° 0 mm 2 m/s 753 mmHg 57%
    21:00 +14°C° 0 mm 2 m/s 753 mmHg 59%
    22:00 +13°C° 0 mm 2 m/s 753 mmHg 63%
    23:00 +13°C° 0 mm 2 m/s 752 mmHg 66%
    Arată mai mult